Probability
0 0 0 0 0 0 0 0 0 0 0 0 0 0 0 0 0 0 0 0 0 0 0 0 0 0 0 0 0 0 0 0 0 1 3 2 2 4 5 6 6 6 7 7
0 0 0 0 0 0 0 0 0 0 0 0 0 0 0 0 0 0 0 0 0 0 0 0 0 0 0 0 0 0 0 0 0 0 1 1 3 4 4 5 6 6 6 6
0 0 0 0 0 0 0 0 0 0 0 0 0 0 0 0 0 0 0 0 0 0 0 0 0 0 0 0 0 0 0 0 0 0 0 1 3 4 4 4 5 5 5 5
0 0 0 0 0 0 0 0 0 0 0 0 0 0 0 0 0 0 0 0 0 0 0 0 0 0 0 0 0 0 0 0 0 0 0 1 3 4 4 4 4 4 4 4
0 0 0 0 0 0 0 0 0 0 0 0 0 0 0 0 0 0 0 0 0 0 0 0 0 0 0 0 0 0 0 0 0 0 0 1 3 4 3 3 3 3 3 3
0 0 0 0 0 0 0 0 0 0 0 0 0 0 0 0 0 0 0 0 0 0 0 0 0 0 0 0 0 0 0 1 1 1 1 2 3 3 3 2 3 3 3 3
0 0 0 0 0 0 0 0 0 0 0 0 0 0 0 0 0 0 0 0 0 0 0 0 0 0 0 0 0 0 0 1 2 2 1 1 1 2 2 2 2 3 3 3
0 0 0 0 0 0 0 0 0 0 0 0 0 0 0 0 0 0 0 0 0 0 0 0 0 0 0 0 0 0 0 1 1 1 0 0 0 1 2 2 3 3 3 3
0 0 0 0 0 0 0 0 0 0 0 0 0 0 0 0 0 0 0 0 0 0 0 0 0 0 0 0 0 0 0 0 0 0 0 0 0 1 2 3 3 3 3 2
0 0 0 0 0 0 0 0 0 0 0 0 0 0 0 0 0 0 0 0 0 0 0 0 0 0 0 0 0 0 0 0 0 0 0 0 0 1 2 2 2 2 2 1
0 0 0 0 0 0 0 0 0 0 0 0 0 0 0 0 0 0 0 0 0 0 0 0 0 0 0 0 0 0 0 0 0 0 0 0 0 0 1 1 0 1 1 1
0 0 0 0 0 0 0 0 0 0 0 0 0 0 0 0 0 0 0 0 0 0 0 0 0 0 0 0 0 0 0 0 0 0 0 0 0 0 0 0 0 0 0 0
0 0 0 0 0 0 0 0 0 0 0 0 0 0 0 0 0 0 0 0 0 0 0 0 0 0 0 0 0 0 0 0 0 0 0 0 0 0 0 0 0 0 0 0
0 0 0 0 0 0 0 0 0 0 0 0 0 0 0 0 0 0 0 0 0 0 0 0 0 0 0 0 0 0 0 0 0 0 0 0 0 0 0 0 0 0 0 0
0 0 0 0 0 0 0 0 0 0 0 0 0 0 0 0 0 0 0 0 0 0 0 0 0 0 0 0 0 0 0 0 0 0 0 0 0 0 0 0 0 0 0 0
0 0 0 0 0 0 0 0 0 0 0 0 0 0 0 0 0 0 0 0 0 0 0 0 0 0 0 0 0 0 0 0 0 0 0 0 0 0 0 0 0 0 0 0
0 0 0 0 0 0 0 0 0 0 0 0 0 0 0 0 0 0 0 0 0 0 0 0 0 0 0 0 0 0 0 0 0 0 0 0 0 0 0 0 0 0 0 0
0 0 0 0 0 0 0 0 0 0 0 0 0 0 0 0 0 0 0 0 0 0 0 0 0 0 0 0 0 0 0 0 0 0 0 0 0 0 0 0 0 0 0 0
0 0 0 0 0 0 0 0 0 0 0 0 0 0 0 0 0 0 0 0 0 0 0 0 0 0 0 0 0 0 0 0 0 0 0 0 0 0 0 0 0 0 0 0
0 0 0 0 0 0 0 0 0 0 0 0 0 0 0 0 0 0 0 0 0 0 0 0 0 0 0 0 0 0 0 0 0 0 0 0 0 0 0 0 0 0 0 0
0 0 0 0 0 0 0 0 0 0 0 0 0 0 0 0 0 0 0 0 0 0 0 0 0 0 0 0 0 0 0 0 0 0 0 0 0 0 0 0 0 0 0 0
0 0 0 0 0 0 0 0 0 0 0 0 0 0 0 0 0 0 0 0 0 0 0 0 0 0 0 0 0 0 0 0 0 0 0 0 0 0 0 0 0 0 0 0
0 0 0 0 0 0 0 0 0 0 0 0 0 0 0 0 0 0 0 0 0 0 0 0 0 0 0 0 0 0 0 0 0 0 0 0 0 0 0 0 0 0 0 0
0 0 0 0 0 0 0 0 0 0 0 0 0 0 0 0 0 0 0 0 0 0 0 0 0 0 0 0 0 0 0 0 0 0 0 0 0 0 0 0 0 0 0 0
0 0 0 0 0 0 0 0 0 0 0 0 0 0 0 0 0 0 0 0 0 0 0 0 0 0 0 0 0 0 0 0 0 0 0 0 0 0 0 0 0 0 0 0
0 0 0 0 0 0 0 0 0 0 0 0 0 0 0 0 0 0 0 0 0 0 0 0 0 0 0 0 0 0 0 0 0 0 0 0 0 0 0 0 0 0 0 0
Wind_Speed
2 3 3 3 3 2 2 4 7 6 5 7 9 11 11 9 8 8 7 7 7 9 10 9 9 9 7 6 5 5 6 6 5 5 5 5 6 5 5 5 7 8 7 9
4 3 2 2 3 4 5 6 7 5 3 6 8 11 8 6 5 7 8 8 9 10 10 10 10 8 7 6 5 5 5 5 5 5 5 5 5 5 5 5 6 7 7 8
2 2 3 4 4 5 5 6 5 6 8 4 6 5 1 2 4 6 8 8 9 10 11 11 10 9 8 6 5 4 4 5 5 6 5 4 4 5 5 5 5 6 8 8
1 1 3 4 4 4 4 3 5 7 6 3 4 4 2 3 5 8 10 10 10 11 10 10 10 10 8 7 5 4 4 4 4 4 5 7 6 6 6 5 5 6 7 8
2 1 3 3 3 4 3 4 5 5 4 4 3 4 3 2 5 9 10 11 11 11 11 10 10 9 7 6 5 4 4 3 3 3 5 6 6 6 5 5 6 5 5 6
1 1 2 2 2 3 4 4 3 2 3 3 2 4 3 2 5 8 9 11 11 11 11 10 9 8 7 6 5 4 3 2 2 3 3 4 6 6 6 6 5 4 4 4
0 2 2 2 2 2 2 3 2 2 2 1 1 4 3 3 4 6 8 10 10 11 11 10 9 8 7 7 6 4 2 1 1 2 2 2 3 5 5 5 5 4 3 3
1 2 1 1 2 2 1 2 2 3 2 2 2 4 1 2 4 5 5 7 9 10 10 10 9 7 7 7 6 5 3 2 2 1 1 1 1 3 3 3 3 2 2 3
1 0 1 1 1 2 1 1 1 1 2 4 2 2 2 1 4 5 6 7 9 10 10 10 9 8 7 7 6 5 3 3 3 2 2 1 1 2 2 2 2 2 2 3
1 2 1 1 2 1 2 1 2 2 2 3 3 2 2 3 4 4 6 7 8 9 10 10 9 9 8 7 7 6 5 4 4 4 3 2 3 2 0 0 1 2 2 3
1 2 1 1 2 1 2 2 2 2 3 3 3 1 1 3 3 3 5 6 7 8 8 8 8 8 8 8 8 8 7 6 5 5 4 5 4 3 2 1 1 1 1 2
1 2 2 2 0 1 2 2 2 3 2 3 3 2 2 2 2 2 4 6 6 7 7 7 8 8 8 8 8 7 7 7 6 5 5 5 5 4 4 3 2 1 1 1
1 2 2 3 3 3 3 3 3 2 2 3 4 2 2 1 1 2 4 5 5 6 6 7 8 8 8 8 8 8 8 8 7 6 6 6 6 6 6 5 4 2 1 1
2 2 3 3 2 1 4 4 4 4 3 4 5 5 3 3 4 4 4 4 4 5 6 6 7 7 7 8 8 8 8 8 7 7 6 7 7 6 6 5 5 4 3 2
2 3 3 6 7 6 8 8 7 8 7 6 5 6 7 5 4 3 3 2 3 4 5 6 6 6 7 7 7 7 7 7 7 7 7 7 7 6 6 6 5 5 5 4
2 3 3 4 3 5 8 9 8 9 8 9 9 9 4 3 3 3 2 2 2 3 4 5 5 6 6 6 6 6 6 6 6 6 6 6 6 6 6 6 6 6 6 5
1 2 3 3 4 6 6 5 7 5 6 6 7 4 2 3 4 4 4 3 3 3 4 4 4 5 5 6 6 6 6 6 6 6 6 6 6 7 6 6 6 6 6 5
2 2 2 4 5 4 2 2 3 5 5 6 7 6 5 5 4 4 4 4 4 3 3 4 4 4 4 5 5 5 5 5 5 5 6 6 6 6 7 7 7 6 6 5
4 3 2 3 4 6 2 1 2 3 4 4 7 6 4 2 3 4 4 4 4 3 3 3 3 3 3 4 4 4 4 4 5 5 6 6 6 6 7 7 7 6 6 5
2 3 3 3 4 4 1 1 1 3 4 0 4 5 3 3 3 2 3 4 4 3 2 2 2 2 3 3 3 3 3 4 4 5 5 6 6 6 6 6 6 5 5 4
4 4 5 5 5 7 2 1 3 3 3 2 3 4 5 6 4 1 3 4 4 3 2 2 2 2 2 3 3 3 3 4 4 5 5 5 5 5 5 5 5 5 4 4
5 5 6 5 6 5 3 4 4 3 3 3 4 4 6 6 3 2 3 4 4 3 3 2 2 2 2 2 3 3 3 4 4 4 4 5 5 5 4 5 5 5 5 5
7 5 3 7 5 1 4 5 3 3 4 4 4 4 5 5 4 4 4 4 4 4 3 3 3 3 3 3 3 4 4 4 4 4 4 4 5 4 5 5 5 4 4 4
4 4 5 7 9 7 7 8 7 6 7 6 5 5 4 5 5 5 5 4 4 4 4 3 3 3 3 3 4 4 3 3 4 4 4 4 4 4 4 4 4 4 4 4
5 6 6 8 8 7 5 5 6 6 6 5 4 4 5 5 6 6 5 5 5 4 4 4 4 4 4 4 4 4 3 3 4 4 4 4 4 4 4 4 4 4 4 5
8 10 8 7 4 4 5 3 4 5 5 5 5 5 5 6 6 6 5 5 5 5 4 4 5 5 4 4 4 3 3 3 3 3 3 3 3 3 4 4 4 4 5 7
Wind_Direction
148 179 182 182 203 242 252 266 276 281 297 291 282 290 301 314 322 324 328 330 327 325 325 326 320 313 304 293 267 251 247 241 233 222 213 211 213 211 215 213 209 206 206 204
165 183 188 190 207 220 240 260 273 289 297 292 292 294 300 316 330 342 342 341 337 332 331 331 326 324 316 303 286 267 254 248 239 226 214 214 215 215 217 211 212 209 211 209
175 118 167 211 221 234 247 249 273 299 313 281 289 284 283 7 4 2 359 350 342 337 332 329 330 330 324 316 306 287 271 255 245 230 212 208 212 214 216 209 212 212 213 211
195 191 202 221 231 242 264 255 271 288 298 296 313 293 290 343 348 356 354 351 348 342 337 333 332 329 325 321 314 301 279 263 249 235 217 208 213 218 220 215 214 211 215 214
168 192 210 225 240 238 274 294 277 276 268 273 250 259 278 346 341 345 346 349 348 345 341 337 334 332 328 324 319 309 287 269 258 246 232 213 218 224 220 211 212 216 216 216
230 221 254 260 264 230 271 274 252 224 229 249 236 248 279 356 336 333 338 344 345 345 345 343 342 343 343 339 330 315 283 269 258 248 243 219 217 221 217 211 209 216 216 216
161 182 198 230 242 197 262 284 256 217 223 252 123 253 276 356 340 327 331 339 344 348 349 351 352 353 352 350 345 337 333 319 293 263 249 221 230 229 221 216 213 217 219 219
195 182 171 218 257 273 280 289 321 308 313 321 242 259 316 16 339 337 340 345 349 355 357 359 359 357 357 356 354 2 14 24 21 5 332 291 268 242 221 213 210 220 224 224
266 221 103 256 265 240 220 209 339 282 283 270 261 276 268 337 338 344 347 352 355 356 357 0 2 3 360 357 356 5 24 29 22 18 6 346 331 288 233 220 216 231 235 227
293 268 257 281 196 165 280 228 210 244 285 290 282 266 300 304 314 330 339 347 351 354 356 358 1 5 7 7 9 17 26 35 26 20 14 13 5 333 302 181 229 247 244 231
257 270 284 220 223 201 180 197 229 245 279 287 297 328 46 292 299 313 331 341 344 349 352 358 3 6 9 13 14 18 24 24 20 22 22 23 13 2 39 49 19 301 286 237
245 281 279 251 325 298 260 248 234 270 253 254 276 286 58 319 300 314 326 335 343 348 352 1 7 8 10 13 12 13 18 26 23 26 28 22 14 23 43 45 23 349 325 281
209 249 276 175 174 188 234 225 223 246 251 237 252 254 75 2 313 323 331 338 344 349 357 1 6 7 8 8 9 12 18 23 22 27 31 27 24 28 31 28 22 23 12 357
241 251 264 286 329 271 252 230 209 214 236 251 247 273 290 300 306 321 330 335 340 348 357 1 1 2 5 6 7 11 14 16 19 23 26 24 22 24 24 22 20 18 13 8
266 265 263 273 277 267 264 257 234 229 242 252 266 271 280 281 274 278 294 315 334 343 350 354 353 353 357 2 4 8 10 12 15 19 20 18 14 14 17 18 16 14 15 13
300 276 286 278 266 271 265 257 242 239 243 250 268 276 280 266 243 254 268 283 304 319 329 340 344 345 348 353 356 0 4 5 11 18 15 13 13 15 14 13 12 13 12 14
254 277 293 285 312 289 260 242 211 214 220 222 239 258 237 246 247 245 243 249 258 283 305 320 332 337 340 344 347 351 352 357 9 13 9 10 11 14 10 8 10 10 6 11
232 251 283 300 309 262 44 64 211 227 240 229 254 267 253 259 272 253 235 233 246 261 285 304 316 326 331 336 340 341 346 356 4 7 7 5 6 7 6 8 8 4 360 1
228 239 264 282 291 282 288 175 192 230 269 232 248 266 269 282 280 246 219 225 236 245 262 284 302 312 319 329 333 334 345 354 1 1 358 356 357 360 1 2 358 354 351 350
170 222 244 249 273 267 19 90 187 232 258 250 247 252 231 204 257 262 185 212 231 239 245 265 291 307 315 327 328 328 338 347 350 346 344 347 349 352 354 350 344 342 341 339
183 195 218 233 255 272 312 151 185 233 337 344 266 248 215 225 264 333 179 208 219 223 233 245 268 283 301 314 309 310 322 333 333 331 333 340 343 345 344 341 338 337 338 339
204 196 204 205 229 255 132 153 211 294 338 290 274 255 237 247 267 243 212 209 206 210 220 233 247 267 284 290 288 291 305 319 323 324 330 336 338 340 336 337 338 339 340 341
223 223 224 219 239 343 183 225 265 289 278 279 274 264 242 244 246 235 227 219 214 215 220 231 244 258 270 274 278 282 302 314 314 320 326 329 332 336 336 333 334 334 336 335
229 216 241 259 261 257 254 257 262 262 267 277 272 261 237 244 243 235 227 223 222 223 224 230 240 250 259 263 269 281 295 299 298 308 314 318 322 328 331 328 325 327 328 329
235 190 225 254 273 285 254 245 271 275 269 270 267 254 245 245 243 236 234 228 225 224 226 228 236 247 257 261 267 280 286 286 290 297 304 311 315 319 320 320 319 319 319 324
208 205 213 242 246 248 277 297 297 279 271 266 263 261 250 238 241 241 240 234 228 225 224 231 243 252 259 262 265 272 281 279 285 292 302 305 308 311 314 317 319 320 319 329